This is the latest recevied weather packets stored in our database for station/object W2JGA. If no packets are shown the sender has not sent any weather packets the latest 10 day(s).
| Time | Temp. | Humidity | Pressure | Rain* | Wind** | Luminosity | Snow |
|---|---|---|---|---|---|---|---|
| 1777847049 | 32.22° C | 21% | 1012.4 hPa | 0 mm | - | 510 W/m² | - |
| 1777846747 | 32.22° C | 21% | 1012.4 hPa | 0 mm | - | 454 W/m² | - |
| 1777846445 | 32.22° C | 21% | 1012.4 hPa | 0 mm | - | 447 W/m² | - |
| 1777846141 | 32.22° C | 20% | 1012.9 hPa | 0 mm | - | 290 W/m² | - |
| 1777845838 | 32.78° C | 20% | 1012.4 hPa | 0 mm | - | 416 W/m² | - |
| 1777845535 | 32.78° C | 20% | 1012.4 hPa | 0 mm | - | 519 W/m² | - |
| 1777845232 | 32.78° C | 21% | 1012.9 hPa | 0 mm | - | 544 W/m² | - |
| 1777844929 | 32.78° C | 20% | 1012.9 hPa | 0 mm | - | 592 W/m² | - |
| 1777844627 | 32.78° C | 20% | 1012.4 hPa | 0 mm | - | 652 W/m² | - |
| 1777844324 | 32.78° C | 20% | 1012.9 hPa | 0 mm | - | 572 W/m² | - |
| 1777844022 | 32.22° C | 20% | 1012.9 hPa | 0 mm | - | 582 W/m² | - |
| 1777843718 | 32.22° C | 20% | 1013.2 hPa | 0 mm | - | 459 W/m² | - |
| 1777843416 | 32.22° C | 21% | 1013.2 hPa | 0 mm | - | 734 W/m² | - |
| 1777843113 | 31.67° C | 22% | 1013.6 hPa | 0 mm | - | 494 W/m² | - |
| 1777842810 | 31.67° C | 22% | 1013.6 hPa | 0 mm | - | 373 W/m² | - |
| 1777842505 | 31.11° C | 24% | 1013.9 hPa | 0 mm | - | 445 W/m² | - |
| 1777842203 | 30.56° C | 29% | 1013.6 hPa | 0 mm | - | 368 W/m² | - |
| 1777841897 | 31.11° C | 30% | 1013.6 hPa | 0 mm | - | 323 W/m² | - |
| 1777841594 | 31.11° C | 30% | 1013.6 hPa | 0 mm | - | 323 W/m² | - |
| 1777841291 | 31.11° C | 30% | 1013.9 hPa | 0 mm | - | 339 W/m² | - |
| 1777840989 | 30.56° C | 30% | 1013.9 hPa | 0 mm | - | 328 W/m² | - |
| 1777840686 | 30.56° C | 31% | 1013.6 hPa | 0 mm | - | 325 W/m² | - |
| 1777840383 | 30.56° C | 30% | 1013.9 hPa | 0 mm | - | 334 W/m² | - |
| 1777840080 | 30.56° C | 30% | 1014.3 hPa | 0 mm | - | 342 W/m² | - |
| 1777839778 | 30° C | 30% | 1014.3 hPa | 0 mm | - | 363 W/m² | - |
* Rain latest hour (hover to see other rain measurements)
** Current wind speed in m/s (hover to see current wind gust speed)